Tracking 18876 objects as of 15-Dec-2017
HD Live streaming from Space Station
objects crossing your sky now

BUCCANEER RMM

Track BUCCANEER RMM now!
10-day predictions


NORAD ID: 43014
Int'l Code: 2017-073B
Perigee: 465.7 km
Apogee: 827.2 km
Inclination: 97.7 °
Period: 97.5 minutes
Semi major axis: 7017 km
RCS: Unknown
Launch date: November 18, 2017
Source: United States (US)
Launch site: AIR FORCE WESTERN TEST RANGE (AFWTR)
aabbcc
Your satellite tracking list
Your tracking list is empty




NASA's NSSDC Master Catalog

Two Line Element Set (TLE):
1 43014U 17073B   17348.40044641  .00000351  00000-0  34340-4 0  9993
2 43014  97.6916 282.3683 0257625 152.4065 209.1097 14.76845106  3838
Source of the keplerian elements: AFSPC